Theta_e
336 325 322 321 309 307 306 306 309 308 310 315 316 314 314 317 315 316 341 344 340 343 357 362 363 362 362 362 363 364 363 364 364 363 362 362 362 362 361 361 359 356 353 349 345 342 341 338 337
328 321 320 317 306 303 305 308 306 310 313 316 316 315 314 313 322 324 330 344 338 347 357 357 362 362 362 361 362 362 362 363 363 363 363 362 362 362 361 360 358 355 352 348 344 342 340 340 339
327 323 313 310 308 304 304 307 309 311 314 314 314 317 315 320 330 333 343 344 339 348 355 357 362 362 362 361 361 360 361 362 362 362 362 362 361 361 360 359 358 355 351 346 344 341 341 340 339
323 319 313 305 304 306 304 309 311 311 314 316 317 313 319 327 335 342 345 341 338 346 350 361 361 361 362 362 361 360 360 360 361 362 361 361 361 359 358 358 357 356 351 347 345 345 343 341 341
322 317 304 303 305 308 310 310 310 310 311 315 317 314 319 327 337 343 343 340 337 343 347 363 361 362 362 362 361 360 360 359 359 360 360 360 359 358 357 357 357 355 353 351 348 347 346 346 343
314 313 302 299 303 307 310 311 312 311 312 315 317 316 320 329 334 341 341 340 338 341 347 357 361 361 361 361 360 359 359 359 358 359 358 358 358 358 357 356 355 354 353 351 349 348 348 347 346
311 309 304 303 302 304 307 313 314 313 312 314 319 314 322 324 333 342 340 339 337 342 345 354 358 361 361 361 360 359 358 358 358 358 358 358 358 357 356 355 355 354 353 351 349 348 348 347 345
315 311 306 305 301 302 308 311 316 316 313 320 320 314 317 323 329 340 341 338 337 342 344 350 352 353 356 359 360 359 359 358 358 358 358 358 358 357 355 354 353 354 353 351 350 349 348 347 346
318 307 304 306 305 305 310 309 316 319 316 317 319 319 321 323 327 334 340 336 337 339 342 347 346 349 351 350 356 359 358 358 358 358 358 356 352 354 353 351 353 353 353 352 350 349 349 347 345
310 306 307 312 312 309 311 311 314 313 314 316 317 321 321 322 325 327 332 335 334 336 338 344 347 349 348 344 351 356 353 355 355 354 355 355 352 352 350 351 353 352 352 352 351 350 349 346 339
309 305 311 312 314 314 312 311 314 311 310 316 314 316 318 320 322 323 326 330 335 335 339 343 351 352 350 346 347 348 347 348 351 354 355 356 350 352 351 348 350 349 350 344 345 344 342 340 339
304 309 310 312 314 313 312 313 310 311 313 313 315 316 317 318 319 321 324 327 330 336 337 341 347 353 354 346 344 345 344 346 347 350 356 355 352 351 349 344 344 346 343 345 341 339 342 341 341
304 306 308 311 312 313 312 309 308 308 312 315 315 315 315 316 318 321 323 327 328 329 340 341 344 350 353 355 345 346 345 344 346 348 352 353 349 348 347 345 343 341 341 340 341 340 340 341 342
305 305 305 307 307 308 306 307 307 308 310 315 315 313 314 314 315 318 320 323 325 325 327 337 343 348 351 352 353 351 349 347 345 344 346 352 348 349 344 344 342 339 339 339 340 340 341 341 341
303 300 303 303 304 302 305 301 302 308 308 307 311 313 314 313 313 315 317 320 322 324 327 329 335 349 351 350 350 350 346 345 342 343 350 349 350 349 350 341 340 339 342 343 342 343 343 341 342
299 301 296 303 303 303 301 300 304 307 305 304 306 308 311 313 313 314 315 319 323 324 326 331 328 335 352 352 349 348 345 344 342 341 344 349 349 350 348 341 340 341 342 340 340 342 341 342 343
298 294 296 298 301 301 300 299 305 306 305 303 304 306 308 309 312 313 314 318 322 325 328 328 333 331 339 352 351 352 354 347 343 343 343 348 347 347 347 342 341 349 340 340 341 343 344 344 344
293 293 294 295 299 300 299 298 302 305 304 303 304 305 305 307 310 311 315 319 322 324 328 329 329 335 336 342 348 348 349 348 348 345 344 347 347 347 349 343 343 344 339 340 341 346 346 345 344
296 295 294 296 299 298 298 298 301 303 304 303 303 304 306 307 309 311 316 318 320 323 325 327 328 333 332 329 336 338 342 345 346 348 349 349 347 347 348 343 345 342 342 339 348 348 347 344 345
296 294 294 297 299 298 297 297 301 302 303 305 305 304 306 307 307 311 315 317 317 320 323 325 327 329 330 328 334 335 338 340 345 348 353 351 349 349 347 348 343 342 339 346 350 350 345 345 347
295 294 294 294 297 299 297 295 298 301 303 305 306 307 308 307 307 311 313 316 318 319 321 322 325 327 329 332 330 331 336 341 340 345 347 352 352 349 350 349 342 342 343 342 350 351 348 341 345
293 297 295 293 293 289 296 287 295 298 299 301 304 306 307 308 310 310 311 314 316 317 320 322 326 328 327 331 330 333 329 328 332 340 345 349 353 352 350 350 347 354 347 349 353 351 348 347 344
294 297 295 295 293 292 292 289 294 297 296 300 302 304 307 308 310 310 312 313 316 318 320 322 325 328 329 330 331 328 329 327 330 334 350 358 358 355 351 351 351 356 352 356 357 352 351 348 346
298 296 296 296 293 286 292 290 292 295 297 299 302 304 305 308 309 311 312 314 315 317 319 322 324 326 328 329 330 330 330 330 329 333 336 340 346 351 354 352 355 357 357 356 352 353 352 352 351
297 293 287 285 286 286 292 289 293 298 299 300 300 301 304 308 308 309 311 312 315 316 318 318 320 322 325 327 328 329 330 331 331 333 332 339 340 344 352 356 355 353 355 354 355 355 354 353 350
294 293 287 280 282 287 292 286 293 299 300 301 302 304 306 307 308 310 311 313 314 316 317 318 320 320 321 323 326 330 332 329 328 334 335 336 342 345 356 356 355 354 355 355 356 354 353 355 352
293 290 295 289 289 286 289 292 296 299 299 300 301 304 305 307 308 309 310 313 314 315 317 318 319 320 322 323 325 327 331 333 332 336 342 338 348 343 351 356 356 356 356 355 357 353 354 354 353
296 297 288 289 281 281 287 288 291 295 296 299 300 301 304 307 307 309 310 312 314 315 317 318 318 318 320 322 323 324 329 333 336 335 338 343 348 351 353 355 357 356 355 355 358 355 356 353 351
293 291 292 292 291 284 283 289 298 297 298 299 301 304 305 306 308 309 310 312 313 314 315 317 318 318 319 320 322 324 326 331 333 336 338 340 348 349 347 351 354 354 353 355 356 357 353 352 351
296 294 294 288 286 289 288 288 300 300 301 301 303 305 306 308 309 309 310 310 311 312 314 315 316 315 317 318 320 322 326 329 331 334 339 340 343 345 346 349 351 350 351 355 355 353 351 348 346
Wind_Speed
15 6 5 7 8 6 13 4 2 6 7 0 4 8 8 10 6 3 4 8 18 23 24 23 20 18 16 15 16 16 16 17 17 17 16 16 16 15 14 13 13 12 12 11 10 10 10 9 8
7 5 6 3 9 11 10 3 11 4 5 7 8 8 11 13 9 13 7 12 17 21 22 23 21 18 17 16 16 16 16 16 17 17 17 17 16 16 15 13 13 13 12 10 10 10 10 10 9
6 6 5 5 9 13 7 3 7 1 3 3 5 4 4 4 14 14 11 10 20 20 22 22 24 20 18 17 16 16 16 16 17 18 18 17 16 16 15 14 14 14 13 12 11 10 9 8 8
4 6 5 10 13 4 7 6 3 6 1 2 7 7 3 8 16 16 18 9 18 21 22 24 24 20 18 17 16 16 16 15 16 16 17 16 15 14 13 13 13 13 13 12 11 10 10 10 9
4 4 9 12 14 9 11 5 4 10 9 5 5 5 1 12 16 12 7 14 19 20 20 23 24 22 19 17 15 15 15 14 13 12 12 13 13 12 11 12 12 12 12 12 11 10 9 9 10
6 5 8 13 15 14 12 8 7 9 8 5 7 6 4 14 18 14 3 13 18 19 18 20 22 22 20 18 16 14 13 13 12 12 12 12 12 11 11 10 10 10 10 10 10 10 9 8 8
12 8 13 16 11 12 10 10 20 11 9 3 10 7 5 17 16 11 3 9 15 17 16 17 19 18 17 16 15 13 12 12 12 11 11 12 12 11 10 10 9 9 9 9 9 9 9 8 8
9 9 18 12 13 15 9 14 20 18 9 6 6 7 12 16 11 6 2 8 13 15 16 17 17 18 17 15 12 13 12 11 11 11 10 10 10 11 11 10 10 10 9 9 9 9 8 8 7
14 13 16 19 14 11 9 16 18 13 12 10 6 6 12 14 12 10 2 9 10 13 15 15 18 17 17 16 15 12 13 12 10 11 10 9 10 12 13 12 10 12 11 10 10 9 8 8 8
15 16 24 18 7 9 10 9 20 12 17 14 10 6 11 13 12 10 8 8 11 12 14 13 14 15 16 13 13 15 14 12 12 12 12 11 11 9 9 9 9 11 11 10 10 10 10 10 9
18 21 18 18 12 14 11 8 9 13 20 13 12 14 13 12 10 9 9 8 8 13 11 12 11 12 14 12 10 7 8 9 9 13 12 11 9 8 8 6 7 9 12 9 12 11 10 12 9
20 17 20 12 15 15 14 11 9 11 10 8 12 16 14 11 10 8 7 6 11 7 12 13 14 12 13 9 10 9 9 9 9 11 12 9 7 8 7 7 7 7 7 9 8 7 9 10 10
17 21 13 16 14 14 16 15 15 9 11 11 14 14 12 8 7 5 5 4 6 5 4 9 13 14 13 11 9 9 10 9 9 9 11 10 10 8 8 7 7 7 7 7 8 7 6 8 10
6 16 12 12 13 14 15 16 8 8 7 16 17 17 11 6 3 3 6 7 5 7 7 5 8 14 13 11 10 8 8 7 8 9 10 13 10 7 9 8 9 8 7 8 5 7 6 8 9
8 12 16 16 15 13 7 16 19 13 7 10 16 17 14 8 2 2 5 5 8 6 7 7 1 7 12 14 12 10 10 11 11 11 11 14 14 11 11 9 9 9 7 6 7 7 8 8 8
12 16 17 18 14 11 8 22 5 6 5 6 8 9 10 10 7 2 4 6 7 8 9 3 9 5 9 8 9 9 10 11 12 11 11 15 16 14 12 9 9 8 6 7 7 9 8 8 8
14 16 16 12 5 7 14 17 16 6 5 3 3 6 5 6 7 3 4 6 8 9 10 11 6 8 7 8 3 9 10 10 11 11 11 15 17 16 13 11 8 8 6 5 8 7 9 7 7
13 12 8 11 9 9 12 12 9 10 9 8 8 8 7 7 6 2 5 6 6 5 9 10 9 10 8 5 5 5 7 9 10 12 12 14 14 16 13 9 11 8 5 8 7 7 7 9 6
8 8 9 4 1 10 14 14 11 14 15 14 13 13 10 9 3 1 5 6 9 9 9 9 9 8 7 5 4 2 9 8 10 11 15 15 15 16 14 10 10 8 8 5 9 8 11 9 7
9 9 9 5 6 8 14 17 16 16 17 19 19 18 14 9 6 2 4 6 7 8 9 10 9 9 9 7 6 5 7 9 10 9 11 14 16 15 14 13 12 14 8 12 11 11 9 9 9
10 10 5 10 6 14 17 21 23 16 10 11 12 14 9 7 3 2 4 9 9 9 10 9 10 9 8 7 6 7 8 10 12 11 10 11 15 17 17 16 13 13 7 9 13 12 15 10 10
12 8 6 8 10 10 4 8 5 9 10 9 9 9 10 7 4 3 4 4 5 6 8 9 10 10 8 9 7 7 9 11 10 9 9 8 13 16 17 17 16 14 12 13 13 12 11 12 11
10 2 8 10 13 15 16 10 9 5 8 9 7 6 7 4 3 1 3 4 7 8 7 8 12 12 10 9 10 9 10 10 10 10 11 9 9 14 16 16 17 15 12 12 12 12 14 12 11
2 9 13 13 13 13 19 10 9 10 9 8 5 6 3 1 3 3 5 5 6 7 9 9 9 10 12 12 11 11 12 12 12 12 11 10 9 10 15 17 14 14 14 12 12 14 16 13 12
11 11 11 10 11 8 7 7 12 8 3 4 4 3 3 4 4 6 7 8 7 9 10 9 12 14 14 14 14 13 14 14 15 15 12 12 9 10 10 14 14 12 14 14 14 15 15 15 12
6 8 10 8 8 6 12 8 4 5 2 3 5 5 3 5 6 10 12 10 10 10 11 12 13 13 13 14 16 14 15 11 12 13 12 12 10 10 11 15 15 18 17 15 15 13 13 13 12
5 11 6 11 15 13 11 6 9 9 8 6 3 5 8 7 8 11 11 11 13 13 13 13 13 14 14 15 14 15 15 15 15 17 15 13 12 13 13 15 16 18 17 17 16 12 13 12 12
12 5 7 10 10 16 9 9 4 11 4 4 5 5 8 11 14 14 13 12 11 13 14 15 15 16 16 16 15 14 15 16 16 16 17 16 14 14 15 16 17 16 17 17 17 12 13 13 11
9 13 10 8 7 8 9 2 10 2 2 4 7 11 13 14 14 13 13 13 13 13 12 12 15 17 17 16 17 16 16 16 16 17 17 17 17 16 18 16 18 18 17 18 17 14 15 14 13
13 16 14 11 12 10 12 13 5 3 2 6 13 16 14 13 14 13 13 12 13 13 13 12 12 15 18 18 18 18 17 16 17 18 19 19 18 17 18 17 18 19 18 18 17 16 14 15 15
Wind_Direction
276 285 267 241 240 236 252 184 328 162 169 117 296 261 259 291 283 360 85 172 152 155 156 168 167 173 169 166 162 161 157 156 156 155 156 155 153 153 153 153 157 162 160 157 153 150 144 139 133
295 250 224 237 248 230 228 187 213 160 6 317 284 263 249 278 318 296 254 159 161 155 156 166 167 176 174 170 166 163 160 159 159 160 160 158 159 159 159 160 162 167 166 165 160 158 152 149 143
265 255 255 240 237 252 245 234 227 117 302 324 311 330 309 15 346 308 45 180 167 163 162 161 167 175 177 175 171 166 165 166 166 165 164 163 164 166 165 167 170 172 172 172 168 166 158 152 149
238 194 205 247 223 242 278 13 53 310 251 165 350 263 253 31 345 318 307 212 176 169 167 149 164 171 178 178 177 173 171 172 174 171 169 168 169 170 170 172 175 175 178 178 173 173 169 165 164
228 252 250 236 232 206 228 245 295 292 294 304 334 333 339 3 357 336 295 192 183 172 171 159 164 169 176 180 183 179 177 174 177 174 173 170 170 172 176 180 183 182 185 183 180 177 177 178 174
204 281 236 235 209 219 213 225 290 298 292 294 338 303 68 360 3 346 308 186 184 170 171 167 168 167 172 177 183 186 182 175 176 177 178 176 175 176 183 188 191 191 194 192 187 182 182 190 184
246 223 245 255 259 217 216 192 271 312 288 313 340 293 339 2 9 358 327 179 178 169 176 169 177 171 170 177 179 180 187 182 179 181 184 182 177 177 184 194 198 203 204 202 201 195 194 197 195
236 250 248 234 232 232 195 204 205 254 302 336 331 357 342 351 360 353 199 184 182 176 180 175 182 182 185 182 177 182 187 187 180 181 183 184 180 181 188 191 199 205 209 209 210 206 205 209 216
229 236 238 228 233 226 197 214 205 258 269 290 322 318 337 332 346 0 102 175 192 183 184 185 182 183 189 191 182 184 189 192 185 185 185 175 209 192 192 205 188 199 209 211 213 212 209 216 229
217 228 239 239 232 238 193 206 187 211 252 278 282 278 331 337 0 5 4 188 187 202 189 192 192 187 191 195 192 199 198 205 205 205 199 216 217 214 217 200 187 200 213 211 215 212 213 222 240
223 243 237 236 228 244 239 203 151 226 244 267 330 320 325 329 345 7 4 13 202 192 191 200 200 198 203 196 191 195 204 202 208 215 210 208 214 210 211 211 199 217 204 217 202 209 225 230 242
242 238 249 231 224 233 235 243 225 220 228 312 308 311 308 319 325 353 9 1 1 175 193 195 196 204 212 208 197 200 202 201 206 206 207 219 212 211 222 216 213 207 212 218 230 220 232 237 244
234 250 236 241 236 242 253 235 249 263 247 267 293 302 313 308 322 13 21 42 29 32 49 207 208 206 200 218 205 213 210 205 210 207 202 215 214 211 211 219 229 220 216 217 222 228 238 242 247
258 246 232 237 230 233 243 257 254 239 242 213 254 274 282 305 355 7 32 27 34 26 13 82 217 224 210 219 213 199 212 213 215 219 213 208 221 210 217 210 220 230 221 232 238 223 225 231 253
239 244 225 234 242 242 252 255 234 252 240 249 249 255 249 272 230 70 41 36 6 18 357 46 137 234 224 213 222 222 224 218 215 212 200 206 210 210 217 219 214 222 215 222 235 236 213 235 233
237 237 248 229 219 228 215 247 157 173 205 233 266 255 252 249 258 81 63 34 20 6 5 336 45 6 225 226 224 237 232 228 229 224 215 210 213 214 206 217 222 222 219 202 219 228 228 226 218
215 254 219 219 207 241 220 245 183 176 249 264 277 251 226 213 205 30 28 53 31 9 1 10 19 42 323 206 152 250 243 239 238 229 221 211 217 213 216 211 213 201 185 227 226 238 248 243 244
238 222 229 254 162 235 231 245 188 223 244 253 270 264 245 242 228 61 24 17 39 25 16 4 7 16 315 288 196 238 233 239 242 235 229 220 217 215 212 204 194 201 175 213 241 244 238 253 247
287 269 264 230 210 269 254 255 246 245 249 237 235 245 244 223 208 339 63 23 6 19 18 2 357 353 339 342 285 257 274 242 236 229 229 222 218 216 201 207 182 179 210 203 227 223 234 232 234
238 243 238 268 269 283 275 269 269 259 252 250 244 234 226 200 208 155 25 19 19 9 7 349 354 356 338 327 350 352 298 280 255 232 222 223 221 213 204 205 192 196 176 195 215 215 234 232 216
224 257 259 276 314 272 267 279 252 239 239 243 241 240 205 209 179 14 21 28 353 355 1 339 339 341 332 311 279 259 253 247 255 246 235 217 217 214 209 199 200 238 205 199 213 210 215 220 213
252 201 267 272 274 278 146 291 230 220 244 200 187 182 196 161 143 103 4 0 355 342 327 326 347 332 309 317 291 275 274 275 276 271 247 231 215 215 207 203 207 209 200 203 201 206 205 223 216
282 190 262 281 271 279 262 245 244 179 187 166 165 163 159 145 124 5 356 330 328 335 336 337 333 327 320 309 293 293 283 282 282 276 270 251 237 220 214 208 205 208 207 201 198 197 206 200 230
94 239 239 242 256 246 241 222 210 186 202 150 133 134 131 280 262 309 320 313 318 322 330 327 322 323 328 317 296 287 286 284 280 277 272 253 237 220 224 206 208 211 201 195 196 198 203 216 211
229 245 267 231 200 244 110 231 266 142 166 206 284 251 254 271 282 309 317 317 310 310 318 317 327 327 325 315 301 294 286 281 277 270 265 264 245 234 224 219 195 202 208 195 196 199 202 203 203
235 298 280 276 275 281 156 243 123 139 146 323 292 276 248 238 334 321 317 312 300 305 306 309 309 308 308 307 302 294 288 283 279 267 259 254 242 227 219 208 199 207 202 200 197 194 201 193 199
199 239 337 291 268 259 246 199 211 215 222 185 204 220 250 263 294 302 303 301 307 303 300 302 298 296 300 299 295 288 285 275 275 276 275 262 243 250 222 210 207 201 197 196 193 197 190 188 190
261 322 222 205 267 252 232 225 204 181 134 150 222 276 295 294 284 288 296 291 287 288 292 294 301 298 295 293 288 285 283 282 270 267 266 261 260 233 243 206 203 203 197 191 194 181 187 185 189
198 225 232 293 294 276 271 260 102 193 259 281 293 306 297 288 291 293 292 292 293 290 286 288 292 297 294 291 287 284 278 279 279 271 265 259 247 234 224 211 200 194 194 188 194 177 175 186 184
284 279 239 233 229 226 276 281 120 219 273 306 291 304 305 294 292 288 289 294 297 301 296 296 298 296 291 288 282 282 281 277 277 270 264 258 246 231 222 210 199 187 189 186 186 179 176 185 180